SHT24C EGJB-EGLL

Flight info

Callsign SHT24C
Flight time 0h 36m
Altitude 19000
Route ORIST L982 ROXOG
Aircraft A319/M-SDE3FGHIRWY/LB1

Departure

Time 2026-04-26 10:08
Airport Guernsey Airport (EGJB)

Arrival

Time 2026-04-26 10:45
Airport London Heathrow Airport (EGLL)
Time Latitude Longitude Altitude Speed Heading
2026-04-26 09:35 49.43257 -2.59687 351 ft 0 kts 178°
2026-04-26 10:01 49.43274 -2.59688 353 ft 4 kts 178°
2026-04-26 10:01 49.43301 -2.59689 348 ft 4 kts 179°
2026-04-26 10:02 49.43328 -2.59689 344 ft 4 kts 185°
2026-04-26 10:02 49.43353 -2.59681 344 ft 4 kts 216°
2026-04-26 10:02 49.43362 -2.59665 355 ft 0 kts 267°
2026-04-26 10:04 49.43362 -2.59667 355 ft 1 kts 267°
2026-04-26 10:04 49.43360 -2.59707 351 ft 6 kts 263°
2026-04-26 10:04 49.43347 -2.59794 348 ft 11 kts 263°
2026-04-26 10:05 49.43340 -2.59930 344 ft 15 kts 267°
2026-04-26 10:05 49.43338 -2.60063 343 ft 15 kts 269°
2026-04-26 10:05 49.43334 -2.60262 338 ft 20 kts 266°
2026-04-26 10:05 49.43325 -2.60486 331 ft 19 kts 266°
2026-04-26 10:06 49.43330 -2.60660 329 ft 13 kts 280°
2026-04-26 10:06 49.43347 -2.60800 326 ft 14 kts 280°
2026-04-26 10:06 49.43363 -2.60959 322 ft 13 kts 269°
2026-04-26 10:06 49.43360 -2.61107 318 ft 13 kts 267°
2026-04-26 10:07 49.43357 -2.61219 316 ft 11 kts 271°
2026-04-26 10:07 49.43401 -2.61329 313 ft 13 kts 312°
2026-04-26 10:07 49.43461 -2.61344 313 ft 8 kts 44°
2026-04-26 10:07 49.43468 -2.61285 314 ft 0 kts 88°
2026-04-26 10:08 49.43468 -2.61282 314 ft 4 kts 88°
2026-04-26 10:08 49.43482 -2.60741 327 ft 96 kts 88°
2026-04-26 10:08 49.43525 -2.59440 680 ft 131 kts 88°
2026-04-26 10:08 49.43574 -2.58014 1486 ft 134 kts 88°
2026-04-26 10:09 49.43612 -2.56547 2082 ft 142 kts 89°
2026-04-26 10:09 49.43652 -2.54924 2447 ft 164 kts 89°
2026-04-26 10:09 49.43699 -2.53055 2789 ft 186 kts 88°
2026-04-26 10:09 49.43807 -2.50944 3079 ft 211 kts 77°
2026-04-26 10:10 49.44653 -2.49032 3621 ft 221 kts 31°
2026-04-26 10:10 49.46066 -2.48280 4481 ft 222 kts
2026-04-26 10:10 49.47616 -2.48064 4919 ft 227 kts
2026-04-26 10:10 49.49227 -2.47562 4910 ft 253 kts 14°
2026-04-26 10:11 49.50975 -2.46785 4899 ft 266 kts 18°
2026-04-26 10:11 49.52751 -2.45957 4938 ft 271 kts 17°
2026-04-26 10:11 49.54574 -2.45140 5833 ft 272 kts 16°
2026-04-26 10:11 49.56409 -2.44355 6848 ft 275 kts 15°
2026-04-26 10:12 49.58250 -2.43602 7759 ft 279 kts 15°
2026-04-26 10:12 49.60151 -2.42850 8678 ft 285 kts 14°
2026-04-26 10:12 49.62089 -2.42097 9585 ft 290 kts 14°
2026-04-26 10:12 49.64073 -2.41329 10421 ft 296 kts 14°
2026-04-26 10:13 49.66097 -2.40555 11243 ft 301 kts 13°
2026-04-26 10:13 49.68135 -2.39742 12078 ft 305 kts 17°
2026-04-26 10:13 49.70058 -2.38367 12861 ft 311 kts 32°
2026-04-26 10:13 49.71798 -2.36219 13232 ft 333 kts 46°
2026-04-26 10:14 49.73352 -2.33402 13502 ft 354 kts 50°
2026-04-26 10:14 49.74960 -2.30437 14085 ft 364 kts 50°
2026-04-26 10:14 49.76616 -2.27405 14704 ft 369 kts 49°
2026-04-26 10:14 49.78291 -2.24353 15366 ft 373 kts 50°
2026-04-26 10:15 49.79955 -2.21322 16051 ft 376 kts 50°
2026-04-26 10:15 49.81662 -2.18211 16716 ft 380 kts 50°
2026-04-26 10:15 49.83378 -2.15078 17371 ft 384 kts 50°
2026-04-26 10:15 49.85116 -2.11903 18021 ft 389 kts 50°
2026-04-26 10:16 49.86877 -2.08680 18656 ft 393 kts 50°
2026-04-26 10:16 49.88655 -2.05417 19103 ft 397 kts 50°
2026-04-26 10:16 49.90440 -2.02137 19242 ft 398 kts 50°
2026-04-26 10:16 49.92235 -1.98843 19280 ft 399 kts 50°
2026-04-26 10:17 49.94024 -1.95559 19281 ft 399 kts 50°
2026-04-26 10:17 49.95819 -1.92255 19292 ft 399 kts 50°
2026-04-26 10:17 49.97588 -1.88990 19286 ft 399 kts 51°
2026-04-26 10:17 49.99486 -1.85843 19285 ft 400 kts 42°
2026-04-26 10:18 50.01707 -1.83253 19286 ft 399 kts 31°
2026-04-26 10:18 50.04161 -1.81229 19282 ft 399 kts 26°
2026-04-26 10:18 50.06645 -1.79278 19290 ft 399 kts 26°
2026-04-26 10:18 50.09133 -1.77306 19291 ft 400 kts 26°
2026-04-26 10:19 50.11592 -1.75303 19293 ft 400 kts 30°
2026-04-26 10:19 50.13835 -1.72832 19297 ft 401 kts 39°
2026-04-26 10:19 50.15977 -1.70033 19300 ft 401 kts 40°
2026-04-26 10:19 50.18130 -1.67237 19302 ft 401 kts 39°
2026-04-26 10:20 50.20274 -1.64454 19314 ft 401 kts 40°
2026-04-26 10:20 50.21692 -1.62616 19315 ft 401 kts 40°
2026-04-26 10:20 50.24543 -1.58938 19319 ft 401 kts 38°
2026-04-26 10:20 50.26882 -1.56560 19318 ft 400 kts 27°
2026-04-26 10:21 50.29453 -1.54858 19322 ft 399 kts 17°
2026-04-26 10:21 50.32111 -1.53563 19321 ft 399 kts 16°
2026-04-26 10:21 50.34725 -1.52287 19321 ft 399 kts 16°
2026-04-26 10:21 50.37379 -1.50988 19321 ft 399 kts 16°
2026-04-26 10:22 50.40022 -1.49694 19321 ft 399 kts 16°
2026-04-26 10:22 50.42675 -1.48392 19334 ft 398 kts 16°
2026-04-26 10:22 50.45323 -1.47082 19336 ft 398 kts 16°
2026-04-26 10:22 50.47962 -1.45775 19336 ft 397 kts 16°
2026-04-26 10:23 50.50571 -1.44486 19339 ft 397 kts 16°
2026-04-26 10:23 50.53204 -1.43142 19336 ft 397 kts 20°
2026-04-26 10:23 50.55696 -1.41264 19336 ft 397 kts 28°
2026-04-26 10:23 50.58116 -1.39171 19329 ft 397 kts 27°
2026-04-26 10:24 50.60543 -1.37083 19334 ft 397 kts 27°
2026-04-26 10:24 50.62974 -1.34999 19333 ft 397 kts 27°
2026-04-26 10:24 50.65401 -1.32918 19335 ft 397 kts 27°
2026-04-26 10:24 50.67809 -1.30849 19153 ft 388 kts 27°
2026-04-26 10:25 50.70120 -1.28858 18923 ft 380 kts 27°
2026-04-26 10:25 50.72436 -1.26858 18690 ft 377 kts 27°
2026-04-26 10:25 50.74729 -1.24875 18439 ft 375 kts 27°
2026-04-26 10:25 50.77006 -1.22868 18160 ft 374 kts 29°
2026-04-26 10:26 50.79223 -1.20726 17895 ft 373 kts 32°
2026-04-26 10:26 50.81390 -1.18489 17625 ft 369 kts 33°
2026-04-26 10:26 50.83511 -1.16237 17203 ft 364 kts 33°
2026-04-26 10:26 50.85584 -1.14027 16753 ft 361 kts 33°
2026-04-26 10:27 50.87672 -1.11816 16280 ft 359 kts 33°
2026-04-26 10:27 50.89747 -1.09639 15804 ft 356 kts 33°
2026-04-26 10:27 50.91811 -1.07491 15330 ft 354 kts 32°
2026-04-26 10:27 50.93867 -1.05360 14866 ft 352 kts 32°
2026-04-26 10:28 50.95910 -1.03238 14400 ft 350 kts 32°
2026-04-26 10:28 50.97942 -1.01129 13902 ft 348 kts 33°
2026-04-26 10:28 50.99924 -0.99016 13436 ft 344 kts 37°
2026-04-26 10:28 51.01663 -0.96413 13296 ft 344 kts 49°
2026-04-26 10:29 51.03256 -0.93565 13310 ft 345 kts 48°
2026-04-26 10:29 51.04853 -0.90734 13319 ft 344 kts 48°
2026-04-26 10:29 51.06459 -0.87892 13320 ft 345 kts 47°
2026-04-26 10:29 51.08042 -0.85087 13318 ft 344 kts 48°
2026-04-26 10:30 51.09645 -0.82240 13323 ft 345 kts 48°
2026-04-26 10:30 51.11245 -0.79389 13323 ft 343 kts 48°
2026-04-26 10:30 51.12799 -0.76614 13321 ft 327 kts 48°
2026-04-26 10:30 51.14281 -0.73961 13325 ft 317 kts 48°
2026-04-26 10:31 51.15737 -0.71353 13086 ft 313 kts 48°
2026-04-26 10:31 51.17167 -0.68786 12400 ft 314 kts 48°
2026-04-26 10:31 51.18616 -0.66184 11826 ft 310 kts 48°
2026-04-26 10:31 51.20031 -0.63644 11261 ft 306 kts 48°
2026-04-26 10:32 51.21434 -0.61123 10691 ft 303 kts 48°
2026-04-26 10:32 51.22823 -0.58620 10164 ft 298 kts 49°
2026-04-26 10:32 51.24191 -0.56151 9548 ft 295 kts 49°
2026-04-26 10:32 51.25544 -0.53706 8942 ft 291 kts 49°
2026-04-26 10:33 51.26876 -0.51297 8444 ft 285 kts 49°
2026-04-26 10:33 51.28342 -0.49245 8309 ft 280 kts 27°
2026-04-26 10:33 51.30111 -0.48493 8323 ft 260 kts 359°
2026-04-26 10:33 51.31812 -0.49189 8321 ft 252 kts 328°
2026-04-26 10:34 51.33030 -0.51125 8325 ft 249 kts 297°
2026-04-26 10:34 51.33595 -0.53731 8327 ft 249 kts 283°
2026-04-26 10:34 51.33977 -0.56424 8322 ft 248 kts 281°
2026-04-26 10:34 51.34337 -0.59128 8300 ft 248 kts 281°
2026-04-26 10:35 51.34689 -0.61808 8063 ft 246 kts 281°
2026-04-26 10:35 51.35041 -0.64491 7775 ft 245 kts 281°
2026-04-26 10:35 51.35386 -0.67161 7488 ft 245 kts 281°
2026-04-26 10:35 51.35720 -0.69791 7203 ft 244 kts 281°
2026-04-26 10:36 51.36057 -0.72447 6914 ft 243 kts 281°
2026-04-26 10:36 51.36392 -0.75094 6623 ft 242 kts 281°
2026-04-26 10:36 51.36807 -0.77699 6305 ft 242 kts 295°
2026-04-26 10:36 51.37758 -0.79918 5997 ft 241 kts 309°
2026-04-26 10:37 51.38846 -0.81977 5647 ft 241 kts 311°
2026-04-26 10:37 51.39911 -0.83960 5505 ft 229 kts 311°
2026-04-26 10:37 51.40912 -0.85821 5384 ft 218 kts 311°
2026-04-26 10:37 51.41888 -0.87631 5255 ft 209 kts 311°
2026-04-26 10:38 51.42841 -0.89337 5065 ft 203 kts 318°
2026-04-26 10:38 51.44090 -0.90264 4746 ft 198 kts 353°
2026-04-26 10:38 51.45431 -0.90131 4437 ft 192 kts 27°
2026-04-26 10:38 51.46491 -0.88914 4183 ft 187 kts 49°
2026-04-26 10:39 51.47204 -0.87217 4023 ft 183 kts 70°
2026-04-26 10:39 51.47526 -0.85265 4012 ft 181 kts 87°
2026-04-26 10:39 51.47552 -0.83238 4013 ft 181 kts 91°
2026-04-26 10:39 51.47567 -0.81213 3996 ft 181 kts 91°
2026-04-26 10:40 51.47582 -0.79197 3856 ft 176 kts 90°
2026-04-26 10:40 51.47595 -0.77291 3642 ft 170 kts 91°
2026-04-26 10:40 51.47608 -0.75439 3405 ft 161 kts 91°
2026-04-26 10:40 51.47618 -0.73673 3205 ft 157 kts 91°
2026-04-26 10:41 51.47629 -0.71916 2991 ft 157 kts 91°
2026-04-26 10:41 51.47639 -0.70156 2791 ft 158 kts 91°
2026-04-26 10:41 51.47650 -0.68419 2558 ft 156 kts 91°
2026-04-26 10:41 51.47659 -0.66677 2356 ft 156 kts 92°
2026-04-26 10:42 51.47669 -0.64921 2143 ft 157 kts 92°
2026-04-26 10:42 51.47675 -0.63768 2000 ft 155 kts 92°
2026-04-26 10:42 51.47688 -0.61465 1716 ft 157 kts 92°
2026-04-26 10:42 51.47696 -0.59716 1506 ft 155 kts 91°
2026-04-26 10:43 51.47705 -0.58005 1286 ft 148 kts 92°
2026-04-26 10:43 51.47714 -0.56416 1094 ft 138 kts 91°
2026-04-26 10:43 51.47721 -0.54913 919 ft 130 kts 91°
2026-04-26 10:43 51.47725 -0.53988 801 ft 123 kts 92°
2026-04-26 10:44 51.47731 -0.52614 644 ft 122 kts 91°
2026-04-26 10:44 51.47737 -0.51282 476 ft 120 kts 90°
2026-04-26 10:44 51.47746 -0.49523 254 ft 117 kts 90°
2026-04-26 10:44 51.47752 -0.48646 154 ft 116 kts 91°
2026-04-26 10:45 51.47762 -0.47397 88 ft 102 kts 90°
2026-04-26 10:45 51.47755 -0.46527 89 ft 49 kts 90°
2026-04-26 10:45 51.47739 -0.46200 89 ft 23 kts 123°
2026-04-26 10:45 51.47634 -0.46077 87 ft 15 kts 170°
2026-04-26 10:46 51.47586 -0.46212 88 ft 14 kts 275°
2026-04-26 10:46 51.47592 -0.46337 86 ft 10 kts 273°
2026-04-26 10:46 51.47595 -0.46465 86 ft 13 kts 271°
2026-04-26 10:46 51.47593 -0.46621 88 ft 15 kts 266°
2026-04-26 10:47 51.47587 -0.46809 86 ft 18 kts 267°
2026-04-26 10:47 51.47583 -0.47026 88 ft 21 kts 270°
2026-04-26 10:47 51.47582 -0.47272 89 ft 23 kts 269°
2026-04-26 10:47 51.47582 -0.47548 87 ft 26 kts 270°
2026-04-26 10:48 51.47580 -0.47785 86 ft 20 kts 269°
2026-04-26 10:48 51.47579 -0.48017 88 ft 19 kts 270°
2026-04-26 10:48 51.47579 -0.48228 88 ft 19 kts 269°
2026-04-26 10:48 51.47577 -0.48416 89 ft 14 kts 260°
2026-04-26 10:49 51.47502 -0.48474 86 ft 14 kts 181°
2026-04-26 10:49 51.47393 -0.48475 86 ft 17 kts 181°
2026-04-26 10:49 51.47273 -0.48478 86 ft 18 kts 182°
2026-04-26 10:49 51.47152 -0.48474 86 ft 17 kts 178°
2026-04-26 10:50 51.47031 -0.48472 86 ft 17 kts 180°
2026-04-26 10:50 51.46928 -0.48473 86 ft 8 kts 181°
2026-04-26 10:50 51.46881 -0.48507 87 ft 8 kts 242°
2026-04-26 10:50 51.46877 -0.48596 86 ft 8 kts 269°
2026-04-26 10:51 51.46872 -0.48668 87 ft 4 kts 230°
2026-04-26 10:51 51.46839 -0.48680 88 ft 2 kts 180°
2026-04-26 10:51 51.46828 -0.48680 86 ft 1 kts 180°
2026-04-26 10:52 51.46827 -0.48680 86 ft 0 kts 180°
2026-04-26 10:52 51.46826 -0.48680 86 ft 0 kts 180°